IRIDIUM 150 (43257 NORAD) Tracking and Keplerian Element Data

This shows tracking and keplerian element data for the satellite.

Feedback or suggestion? Click here.




ElementValue
Catalog43257
NameIRIDIUM 150
Epoch Orbit18297
Epoch Day269.60991301
Epoch Year2021
RAAN291.1574
Inclination86.392
Eccentricity0.0002233
Argument of Perigee96.5887
Mean Anonmoly263.5563
Mean Motion14.34218247
Decay Rate8E-07
L11 43257U 18030J 21269.60991301 .00000080 00000-0 21529-4 0 9993
L22 43257 86.3920 291.1574 0002233 96.5887 263.5563 14.34218247182976

Live tracking and technical data element details for IRIDIUM 150 (NORAD 43257). IRIDIUM 150 can be tracked NOW for your location showing map with azimuth and elevation plus other details from your city location.

Track the satellite on the map from your city or location and see movement details for azimuth, elevation, latitude, longitude, range, height, and movement on the map or in text.







IsCatalogInMostPopularTable: catalog: 43257, numindb: 537
Update: records affected: 1



GetName: 43257 IRIDIUM 150

Hit Count: updated at: Tue, 28 Sep 2021 16:22:28 GMT